| time (UTC) | temp F | wind direction | speed MPH | gust MPH | rain 1hr in | rain 24hr in | rain mn in | humidity % | barometer mb |
| 20260901220344 | 58 | 45 | 0.0 | 0.0 | 0.00 | 0.00 | 0.00 | 80 | 1019.9 |
| 20260901215331 | 58 | 45 | 0.0 | 0.0 | 0.00 | 0.00 | 0.00 | 80 | 1020.1 |
| 20260901214809 | 58 | 45 | 0.0 | 0.0 | 0.00 | 0.00 | 0.00 | 80 | 1020.1 |
| 20260901213332 | 58 | 45 | 0.0 | 0.0 | 0.00 | 0.00 | 0.00 | 80 | 1020.1 |
| 20260901212800 | 58 | 45 | 0.0 | 0.0 | 0.00 | 0.00 | 0.00 | 79 | 1020.1 |
| 20260901211326 | 59 | 45 | 0.0 | 0.0 | 0.00 | 0.00 | 0.00 | 79 | 1019.7 |
| 20260901210328 | 59 | 45 | 0.0 | 0.0 | 0.00 | 0.00 | 0.00 | 79 | 1019.7 |
| 20260901205327 | 59 | 45 | 0.0 | 0.0 | 0.00 | 0.00 | 0.00 | 78 | 1019.9 |
| 20260901204327 | 59 | 45 | 0.0 | 0.0 | 0.00 | 0.00 | 0.00 | 78 | 1019.9 |
| 20260901203332 | 59 | 45 | 0.0 | 0.0 | 0.00 | 0.00 | 0.00 | 77 | 1019.4 |
| 20260901202329 | 60 | 45 | 0.0 | 0.0 | 0.00 | 0.00 | 0.00 | 76 | 1019.4 |
| 20260901201328 | 60 | 45 | 0.0 | 0.0 | 0.00 | 0.00 | 0.00 | 76 | 1019.2 |
| 20260901200314 | 60 | 45 | 0.0 | 0.0 | 0.00 | 0.00 | 0.00 | 75 | 1019.2 |
| 20260901195223 | 61 | 45 | 0.0 | 0.0 | 0.00 | 0.00 | 0.00 | 74 | 1019.2 |
| 20260901194221 | 61 | 45 | 0.0 | 0.0 | 0.00 | 0.00 | 0.00 | 74 | 1019.2 |
| 20260901193226 | 61 | 45 | 0.0 | 0.0 | 0.00 | 0.00 | 0.00 | 73 | 1019.2 |
| 20260901192225 | 62 | 45 | 0.0 | 0.0 | 0.00 | 0.00 | 0.00 | 72 | 1019.2 |
| 20260901191229 | 62 | 45 | 0.0 | 0.0 | 0.00 | 0.00 | 0.00 | 71 | 1019.5 |
| 20260901190225 | 63 | 45 | 0.0 | 0.0 | 0.00 | 0.00 | 0.00 | 70 | 1019.5 |
| 20260901185224 | 63 | 45 | 0.0 | 0.0 | 0.00 | 0.00 | 0.00 | 69 | 1019.4 |
| 20260901184224 | 64 | 45 | 0.0 | 0.0 | 0.00 | 0.00 | 0.00 | 68 | 1019.4 |
| 20260901183225 | 64 | 45 | 0.0 | 0.0 | 0.00 | 0.00 | 0.00 | 67 | 1019.6 |
| 20260901182225 | 65 | 45 | 0.0 | 0.0 | 0.00 | 0.00 | 0.00 | 66 | 1019.6 |
| 20260901181222 | 66 | 45 | 0.0 | 0.0 | 0.00 | 0.00 | 0.00 | 64 | 1019.6 |
| 20260901180702 | 67 | 68 | 0.0 | 0.0 | 0.00 | 0.00 | 0.00 | 63 | 1019.6 |
| 20260901174655 | 68 | 315 | 1.0 | 3.0 | 0.00 | 0.00 | 0.00 | 62 | 1019.7 |
| 20260901173223 | 69 | 23 | 1.0 | 3.0 | 0.00 | 0.00 | 0.00 | 61 | 1019.7 |
| 20260901172218 | 69 | 225 | 2.0 | 4.0 | 0.00 | 0.00 | 0.00 | 60 | 1019.7 |
| 20260901171215 | 69 | 203 | 1.0 | 3.0 | 0.00 | 0.00 | 0.00 | 60 | 1019.5 |
| 20260901170213 | 70 | 45 | 1.0 | 4.0 | 0.00 | 0.00 | 0.00 | 60 | 1019.5 |
| 20260901165212 | 70 | 270 | 2.0 | 5.0 | 0.00 | 0.00 | 0.00 | 59 | 1019.7 |
| 20260901164212 | 70 | 248 | 1.0 | 3.0 | 0.00 | 0.00 | 0.00 | 58 | 1019.7 |
| 20260901163214 | 70 | 135 | 2.0 | 4.0 | 0.00 | 0.00 | 0.00 | 57 | 1019.6 |
| 20260901162212 | 71 | 248 | 2.0 | 5.0 | 0.00 | 0.00 | 0.00 | 56 | 1019.6 |
| 20260901160212 | 72 | 158 | 3.0 | 6.0 | 0.00 | 0.00 | 0.00 | 56 | 1019.4 |
| 20260901155212 | 72 | 135 | 2.0 | 6.0 | 0.00 | 0.00 | 0.00 | 55 | 1019.4 |
| 20260901154212 | 72 | 0 | 4.0 | 8.0 | 0.00 | 0.00 | 0.00 | 54 | 1019.4 |
| 20260901153218 | 73 | 293 | 4.0 | 7.0 | 0.00 | 0.00 | 0.00 | 53 | 1019.1 |
| 20260901152212 | 73 | 23 | 3.0 | 7.0 | 0.00 | 0.00 | 0.00 | 54 | 1019.1 |
| 20260901151212 | 73 | 248 | 3.0 | 5.0 | 0.00 | 0.00 | 0.00 | 55 | 1019.0 |
| 20260901150658 | 73 | 68 | 3.0 | 9.0 | 0.00 | 0.00 | 0.00 | 55 | 1019.0 |
| 20260901145216 | 73 | 270 | 3.0 | 5.0 | 0.00 | 0.00 | 0.00 | 54 | 1018.9 |
| 20260901144215 | 73 | 270 | 5.0 | 9.0 | 0.00 | 0.00 | 0.00 | 53 | 1018.9 |
| 20260901143205 | 74 | 68 | 4.0 | 8.0 | 0.00 | 0.00 | 0.00 | 54 | 1018.8 |
| 20260901142205 | 74 | 270 | 4.0 | 8.0 | 0.00 | 0.00 | 0.00 | 54 | 1018.8 |
| 20260901141646 | 74 | 23 | 4.0 | 12.0 | 0.00 | 0.00 | 0.00 | 55 | 1018.7 |
| 20260901135256 | 73 | 248 | 4.0 | 10.0 | 0.00 | 0.00 | 0.00 | 56 | 1018.4 |
| 20260901134745 | 73 | 203 | 5.0 | 10.0 | 0.00 | 0.00 | 0.00 | 56 | 1018.4 |
| 20260901133253 | 73 | 225 | 4.0 | 13.0 | 0.00 | 0.00 | 0.00 | 58 | 1018.3 |
| 20260901132257 | 73 | 270 | 5.0 | 9.0 | 0.00 | 0.00 | 0.00 | 57 | 1018.3 |
| 20260901131728 | 74 | 248 | 5.0 | 8.0 | 0.00 | 0.00 | 0.00 | 58 | 1018.2 |
| 20260901130250 | 74 | 248 | 6.0 | 12.0 | 0.00 | 0.00 | 0.00 | 57 | 1018.2 |
| 20260901125258 | 72 | 248 | 5.0 | 12.0 | 0.00 | 0.00 | 0.00 | 61 | 1018.1 |
| 20260901124252 | 72 | 23 | 6.0 | 9.0 | 0.00 | 0.00 | 0.00 | 61 | 1018.1 |
| 20260901123245 | 72 | 315 | 5.0 | 12.0 | 0.00 | 0.00 | 0.00 | 62 | 1018.0 |
| 20260901122251 | 72 | 248 | 6.0 | 9.0 | 0.00 | 0.00 | 0.00 | 63 | 1018.0 |
| 20260901121248 | 72 | 248 | 6.0 | 11.0 | 0.00 | 0.00 | 0.00 | 62 | 1018.0 |
| 20260901120248 | 72 | 270 | 4.0 | 6.0 | 0.00 | 0.00 | 0.00 | 65 | 1018.0 |
| 20260901115250 | 71 | 248 | 4.0 | 8.0 | 0.00 | 0.00 | 0.00 | 68 | 1017.7 |
| 20260901114245 | 71 | 180 | 4.0 | 13.0 | 0.00 | 0.00 | 0.00 | 68 | 1017.7 |
| 20260901113245 | 73 | 248 | 3.0 | 13.0 | 0.00 | 0.00 | 0.00 | 70 | 1017.6 |
| 20260901111737 | 72 | 225 | 6.0 | 10.0 | 0.00 | 0.00 | 0.00 | 70 | 1017.4 |
| 20260901110300 | 73 | 248 | 5.0 | 10.0 | 0.00 | 0.00 | 0.00 | 74 | 1017.4 |
| 20260901105250 | 71 | 270 | 2.0 | 5.0 | 0.00 | 0.00 | 0.00 | 81 | 1017.5 |
| 20260901104242 | 68 | 23 | 3.0 | 8.0 | 0.00 | 0.00 | 0.00 | 83 | 1017.5 |
| 20260901103244 | 66 | 135 | 2.0 | 5.0 | 0.00 | 0.00 | 0.00 | 84 | 1017.5 |
| 20260901102726 | 66 | 180 | 2.0 | 4.0 | 0.00 | 0.00 | 0.00 | 84 | 1017.5 |
| 20260901101245 | 66 | 225 | 2.0 | 5.0 | 0.00 | 0.00 | 0.00 | 84 | 1017.5 |
| 20260901100720 | 66 | 248 | 2.0 | 7.0 | 0.00 | 0.00 | 0.00 | 84 | 1017.5 |
| 20260901095247 | 66 | 293 | 3.0 | 6.0 | 0.00 | 0.00 | 0.00 | 83 | 1017.3 |
| 20260901094243 | 66 | 270 | 3.0 | 7.0 | 0.00 | 0.00 | 0.00 | 84 | 1017.3 |
| 20260901093253 | 66 | 180 | 3.0 | 8.0 | 0.00 | 0.00 | 0.00 | 84 | 1017.4 |
| 20260901092236 | 65 | 90 | 3.0 | 0.0 | 0.00 | 0.00 | 0.00 | 86 | 1017.3 |
| 20260901091223 | 65 | 90 | 3.0 | 4.0 | 0.00 | 0.00 | 0.00 | 86 | 1017.3 |
| 20260901090221 | 65 | 180 | 3.0 | 7.0 | 0.00 | 0.00 | 0.00 | 85 | 1017.3 |
| 20260901085223 | 65 | 225 | 3.0 | 6.0 | 0.00 | 0.00 | 0.00 | 86 | 1017.2 |
| 20260901084221 | 64 | 180 | 2.0 | 6.0 | 0.00 | 0.00 | 0.00 | 86 | 1017.2 |
| 20260901081703 | 64 | 225 | 2.0 | 4.0 | 0.00 | 0.00 | 0.00 | 86 | 1016.8 |
| 20260901080220 | 64 | 225 | 4.0 | 7.0 | 0.00 | 0.00 | 0.00 | 87 | 1016.8 |
| 20260901075219 | 64 | 225 | 4.0 | 8.0 | 0.00 | 0.00 | 0.00 | 87 | 1016.6 |
| 20260901074225 | 63 | 338 | 2.0 | 5.0 | 0.00 | 0.00 | 0.00 | 87 | 1016.6 |
| 20260901073219 | 63 | 225 | 2.0 | 4.0 | 0.00 | 0.00 | 0.00 | 88 | 1016.5 |
| 20260901072218 | 62 | 248 | 3.0 | 4.0 | 0.00 | 0.00 | 0.00 | 88 | 1016.5 |
| 20260901071223 | 62 | 293 | 2.0 | 5.0 | 0.00 | 0.00 | 0.00 | 88 | 1016.6 |
| 20260901070218 | 61 | 225 | 2.0 | 5.0 | 0.00 | 0.00 | 0.00 | 88 | 1016.6 |
| 20260901065216 | 61 | 158 | 2.0 | 5.0 | 0.00 | 0.00 | 0.00 | 88 | 1016.5 |
| 20260901064659 | 60 | 180 | 2.0 | 4.0 | 0.00 | 0.00 | 0.00 | 88 | 1016.5 |
| 20260901063214 | 60 | 180 | 2.0 | 4.0 | 0.00 | 0.00 | 0.00 | 88 | 1016.1 |
| 20260901062214 | 60 | 338 | 1.0 | 4.0 | 0.00 | 0.00 | 0.00 | 88 | 1016.1 |
| 20260901061215 | 59 | 135 | 2.0 | 5.0 | 0.00 | 0.00 | 0.00 | 88 | 1016.1 |
| 20260901060215 | 59 | 225 | 2.0 | 3.0 | 0.00 | 0.00 | 0.00 | 88 | 1016.1 |
| 20260901055214 | 59 | 135 | 2.0 | 5.0 | 0.00 | 0.00 | 0.00 | 88 | 1016.0 |
| 20260901054214 | 59 | 180 | 2.0 | 3.0 | 0.00 | 0.00 | 0.00 | 88 | 1016.0 |
| 20260901053212 | 59 | 180 | 1.0 | 2.0 | 0.00 | 0.00 | 0.00 | 88 | 1016.0 |
| 20260901052211 | 59 | 158 | 1.0 | 3.0 | 0.00 | 0.00 | 0.00 | 88 | 1016.0 |
| 20260901051213 | 59 | 180 | 0.0 | 2.0 | 0.00 | 0.00 | 0.00 | 88 | 1015.6 |
| 20260901050212 | 59 | 248 | 0.0 | 2.0 | 0.00 | 0.00 | 0.00 | 88 | 1015.6 |
| 20260901045212 | 59 | 158 | 0.0 | 4.0 | 0.00 | 0.00 | 0.00 | 88 | 1016.1 |
| 20260901044214 | 59 | 248 | 0.0 | 1.0 | 0.00 | 0.00 | 0.00 | 88 | 1016.1 |
| 20260901043210 | 59 | 180 | 0.0 | 2.0 | 0.00 | 0.00 | 0.00 | 87 | 1016.0 |
| 20260901042648 | 59 | 180 | 2.0 | 7.0 | 0.00 | 0.00 | 0.00 | 88 | 1016.0 |
| 20260901041208 | 59 | 248 | 2.0 | 2.0 | 0.00 | 0.00 | 0.00 | 87 | 1015.3 |
| 20260901040638 | 59 | 248 | 2.0 | 3.0 | 0.00 | 0.00 | 0.00 | 87 | 1015.3 |
| 20260901035204 | 59 | 248 | 2.0 | 4.0 | 0.00 | 0.00 | 0.00 | 87 | 1015.3 |
| 20260901034212 | 60 | 0 | 2.0 | 0.0 | 0.00 | 0.00 | 0.00 | 87 | 1015.1 |
| 20260901033226 | 59 | 135 | 2.0 | 5.0 | 0.00 | 0.00 | 0.00 | 87 | 1015.1 |
| 20260901032231 | 60 | 0 | 2.0 | 5.0 | 0.00 | 0.00 | 0.00 | 87 | 1015.1 |
| 20260901031223 | 60 | 270 | 1.0 | 4.0 | 0.00 | 0.00 | 0.00 | 87 | 1015.1 |
| 20260901030217 | 60 | 225 | 2.0 | 3.0 | 0.00 | 0.00 | 0.00 | 86 | 1015.1 |
| 20260901025217 | 60 | 90 | 1.0 | 3.0 | 0.00 | 0.00 | 0.00 | 86 | 1015.0 |
| 20260901024216 | 60 | 203 | 1.0 | 3.0 | 0.00 | 0.00 | 0.00 | 86 | 1015.0 |
| 20260901023213 | 60 | 180 | 1.0 | 4.0 | 0.00 | 0.00 | 0.00 | 86 | 1015.0 |
| 20260901022214 | 60 | 203 | 1.0 | 3.0 | 0.00 | 0.00 | 0.00 | 86 | 1015.0 |
| 20260901021212 | 60 | 180 | 1.0 | 3.0 | 0.00 | 0.00 | 0.00 | 86 | 1014.9 |
| 20260901020211 | 60 | 225 | 1.0 | 4.0 | 0.00 | 0.00 | 0.00 | 86 | 1014.9 |
| 20260901015211 | 60 | 180 | 1.0 | 3.0 | 0.00 | 0.00 | 0.00 | 85 | 1015.1 |
| 20260901014208 | 60 | 203 | 1.0 | 3.0 | 0.00 | 0.00 | 0.00 | 85 | 1015.1 |
| 20260901013209 | 60 | 248 | 2.0 | 2.0 | 0.00 | 0.00 | 0.00 | 85 | 1015.1 |
| 20260901012208 | 60 | 158 | 1.0 | 3.0 | 0.00 | 0.00 | 0.00 | 85 | 1015.1 |
| 20260901011210 | 61 | 158 | 2.0 | 2.0 | 0.00 | 0.00 | 0.00 | 85 | 1015.0 |
| 20260901010209 | 61 | 158 | 2.0 | 6.0 | 0.00 | 0.00 | 0.00 | 85 | 1015.0 |
| 20260901005209 | 60 | 225 | 1.0 | 4.0 | 0.00 | 0.00 | 0.00 | 85 | 1014.6 |
| 20260901004209 | 60 | 248 | 2.0 | 3.0 | 0.00 | 0.00 | 0.00 | 85 | 1014.6 |
| 20260901003215 | 60 | 158 | 1.0 | 6.0 | 0.00 | 0.00 | 0.00 | 84 | 1014.8 |
| 20260901002209 | 60 | 270 | 2.0 | 6.0 | 0.00 | 0.00 | 0.00 | 84 | 1014.8 |
| 20260901001208 | 60 | 293 | 2.0 | 4.0 | 0.00 | 0.00 | 0.00 | 84 | 1014.9 |
| 20260901000207 | 60 | 225 | 2.0 | 4.0 | 0.00 | 0.00 | 0.00 | 84 | 1014.9 |
| 20260831235208 | 60 | 248 | 2.0 | 4.0 | 0.00 | 0.00 | 0.00 | 84 | 1014.9 |
| 20260831234643 | 60 | 248 | 2.0 | 4.0 | 0.00 | 0.00 | 0.00 | 84 | 1014.9 |
| 20260831233647 | 60 | 225 | 2.0 | 3.0 | 0.00 | 0.00 | 0.00 | 84 | 1014.8 |
| 20260831232208 | 60 | 180 | 1.0 | 3.0 | 0.00 | 0.00 | 0.00 | 83 | 1014.8 |
| 20260831231659 | 60 | 158 | 1.0 | 4.0 | 0.00 | 0.00 | 0.00 | 83 | 1014.8 |
| 20260831230643 | 60 | 135 | 1.0 | 3.0 | 0.00 | 0.00 | 0.00 | 83 | 1014.8 |
| 20260831225204 | 60 | 158 | 1.0 | 3.0 | 0.00 | 0.00 | 0.00 | 83 | 1015.0 |
| 20260831224204 | 60 | 180 | 2.0 | 4.0 | 0.00 | 0.00 | 0.00 | 83 | 1015.0 |
| 20260831223205 | 61 | 180 | 2.0 | 4.0 | 0.00 | 0.00 | 0.00 | 83 | 1015.4 |
| 20260831222206 | 61 | 225 | 2.0 | 6.0 | 0.00 | 0.00 | 0.00 | 82 | 1015.4 |
| 20260831221652 | 61 | 135 | 2.0 | 4.0 | 0.00 | 0.00 | 0.00 | 82 | 1015.3 |